Starlink 35346

operational
NORAD ID: 66180 Int'l Des: 2025-243 Owner: SPXS Country: US Constellation: starlink
LEOCIRCULAR

Über Starlink 35346

Beschreibung wird geladen...

Live-Position

3D-Globus wird geladen...

Nächste Überflüge

Höhenverlauf

Altitude vs Time

uPlot chart will show altitude changes over time

Zweizeiliger Elementsatz

1 66180C 25243C 25299.73381944 .00921250 00000+0 14957-2 0 2992
2 66180 53.1580 157.0831 0008972 275.4776 7.8381 16.01662691 10
Epoch: 26. Okt. 2025 • Age: 129 hours

Aktueller Status

Höhe 253.5 km
Geschwindigkeit 7.76 km/s
Subsatellitenpunkt -51.66°S, 158.88°W
Startdatum 26. Okt. 2025
Alter 4 days
Typ internet

Technische Details

Klassifizierung Payload
Masse 575.00 kg
Trockenmasse 530.00 kg
Gesamtmasse 575.00 kg
Länge 0.30 m
Durchmesser 4.10 m
Spannweite 29.00 m
Form Box + pan
Hersteller SPXS
Bus-Typ Starlink V2MO
Phasenstatus In Orbit
Besitzer/Staat SPXS/US

Große Konstellationen

Loading constellations...